Stations météo

Publicité
La Hague, France (7020): Température de l'air & dewpoint: 18.01.2021 05:00:00 - 24.01.2021 05:00:00 (CET)La Hague, France (7020): Vitesse du vent & gusts: 18.01.2021 05:00:00 - 24.01.2021 05:00:00 (CET)La Hague, France (7020): Direction du vent: 18.01.2021 05:00:00 - 24.01.2021 05:00:00 (CET)La Hague, France (7020): reduced air pressure: 18.01.2021 05:00:00 - 24.01.2021 05:00:00 (CET)La Hague, France (7020): visibility: 18.01.2021 05:00:00 - 24.01.2021 05:00:00 (CET)La Hague, France (7020): Quantités de précipitations: 18.01.2021 05:00:00 - 24.01.2021 05:00:00 (CET)
Date & Time tt [°C] td [°C] ff [km/h] ff [knt] fx [km/h] fx [knt] dd ppp [hPa] vv [km] rr [mm]
24.01.2021 05:00:00 6,5 0,0 30 16 42 23 SSW 999,0 - 0,0
24.01.2021 04:00:00 6,4 -0,8 20 11 32 17 SSW 999,4 11 0,0
24.01.2021 03:00:00 6,3 -0,9 20 11 30 16 SW 1000,0 - 0,0
24.01.2021 02:00:00 5,7 -1,7 15 8 26 14 SW 1000,2 - 0,0
24.01.2021 01:00:00 5,8 -2,1 15 8 25 14 WSW 1000,5 12 0,0
24.01.2021 00:00:00 5,2 -2,6 11 6 20 11 WSW 1000,3 - 0,0
23.01.2021 23:00:00 5,3 -3,0 8 4 23 13 WNW 1000,1 - 0,0
23.01.2021 22:00:00 5,7 -2,4 14 8 25 13 WNW 1000,0 14 0,0
23.01.2021 21:00:00 5,9 -2,2 16 9 31 17 NW 999,7 - 0,0
23.01.2021 20:00:00 6,2 -0,8 21 12 31 17 NW 999,3 - 0,0
23.01.2021 19:00:00 5,8 -0,7 18 10 31 17 NW 998,8 12 0,0
23.01.2021 18:00:00 5,9 -0,2 22 12 32 17 NNW 998,1 - 0,0
23.01.2021 17:00:00 6,2 0,1 23 12 33 18 NNW 998,0 - 0,0
23.01.2021 16:00:00 6,8 0,9 23 12 34 18 NNW 997,9 16 0,0
23.01.2021 15:00:00 6,7 0,8 28 15 40 21 NNW 997,3 - 0,0
23.01.2021 14:00:00 6,9 1,0 29 15 38 20 NNW 997,0 - 0,0
23.01.2021 13:00:00 6,8 0,7 28 15 41 22 N 996,5 14 0,0
23.01.2021 12:00:00 6,7 2,4 31 17 42 23 N 995,4 - 0,0
23.01.2021 11:00:00 6,2 4,2 29 16 45 24 NNE 994,6 - 0,0
23.01.2021 10:00:00 4,5 2,4 25 13 40 22 ENE 993,7 12 0,6
23.01.2021 09:00:00 4,9 2,8 28 15 39 21 NE 992,6 - 1,0
23.01.2021 08:00:00 4,2 1,7 13 7 18 10 ENE 992,0 - 0,4
23.01.2021 07:00:00 4,0 0,7 16 8 33 18 ESE 991,6 10 0,2
23.01.2021 06:00:00 5,3 1,4 18 10 28 15 SSE 992,1 - 0,0
23.01.2021 05:00:00 5,0 0,7 17 9 34 18 E 992,9 - 1,0
23.01.2021 04:00:00 5,6 1,1 9 5 13 7 SE 993,7 10 0,0
23.01.2021 03:00:00 7,0 1,7 8 4 27 15 SSW 994,7 - 0,0
23.01.2021 02:00:00 7,8 2,3 18 10 27 15 WSW 995,8 - 0,0
23.01.2021 01:00:00 7,8 2,9 21 11 37 20 W 996,5 10 0,0
23.01.2021 00:00:00 7,6 2,7 29 16 48 26 W 996,9 - 0,0
22.01.2021 23:00:00 6,9 2,2 31 17 59 32 W 996,8 - 2,0
22.01.2021 22:00:00 7,9 2,8 36 19 53 29 W 996,5 10 0,0
22.01.2021 21:00:00 8,0 3,1 39 21 53 29 W 996,5 - 0,0
22.01.2021 20:00:00 7,8 2,9 36 19 71 38 W 996,4 - 0,6
22.01.2021 19:00:00 8,3 3,5 27 14 57 31 WSW 996,1 - 0,0
22.01.2021 18:00:00 8,1 3,0 39 21 58 31 W 995,6 - 0,0
22.01.2021 17:00:00 8,5 3,5 33 18 43 23 WSW 995,5 - 0,0
22.01.2021 16:00:00 8,2 3,2 28 15 46 25 W 995,5 10 0,4
22.01.2021 15:00:00 8,9 3,7 22 12 41 22 WSW 995,4 - 0,0
22.01.2021 14:00:00 8,9 3,7 30 16 39 21 W 995,4 - 0,0
22.01.2021 13:00:00 8,4 3,2 28 15 44 24 W 995,8 12 1,0
22.01.2021 12:00:00 8,2 2,8 6 3 44 24 W 995,7 - 0,4
22.01.2021 11:00:00 8,7 2,3 20 11 27 15 W 995,2 - 0,0
22.01.2021 10:00:00 8,5 2,7 18 10 25 14 W 994,4 18 0,0
22.01.2021 09:00:00 8,1 2,1 18 10 29 15 W 993,7 - 0,0
22.01.2021 08:00:00 7,9 1,9 19 10 31 17 WNW 992,9 - 0,0
22.01.2021 07:00:00 8,0 1,8 22 12 29 15 WNW 992,2 12 0,0
22.01.2021 06:00:00 7,9 2,4 22 12 29 16 WNW 992,0 - 0,0
22.01.2021 05:00:00 7,9 1,9 21 11 29 16 WNW 991,6 - 0,0
22.01.2021 04:00:00 7,9 1,7 16 9 28 15 WNW 991,4 14 0,0
22.01.2021 03:00:00 7,7 1,5 20 11 29 16 WNW 991,1 - 0,0
22.01.2021 02:00:00 7,7 1,7 22 12 29 16 WNW 990,9 - 0,0
22.01.2021 01:00:00 7,9 2,1 21 11 36 20 WNW 990,6 14 0,0
22.01.2021 00:00:00 7,9 2,6 31 17 41 22 WNW 990,0 - 0,0
21.01.2021 23:00:00 8,2 3,4 33 18 41 22 WNW 989,2 - 0,0
21.01.2021 22:00:00 8,4 4,2 24 13 32 18 W 988,2 14 0,0
21.01.2021 21:00:00 7,6 3,8 18 10 29 15 WSW 987,6 - 0,0
21.01.2021 20:00:00 7,2 4,0 22 12 30 16 WNW 986,8 - 0,0
21.01.2021 19:00:00 6,4 3,7 6 3 31 17 N 985,6 8 0,0
21.01.2021 18:00:00 6,2 3,7 23 13 32 17 N 985,3 - 1,2
21.01.2021 17:00:00 6,2 3,7 25 13 30 16 N 984,7 - 2,5
21.01.2021 16:00:00 6,4 3,5 9 5 13 7 NNE 985,5 8 2,4
21.01.2021 15:00:00 6,7 3,5 2 1 39 21 W 986,4 - 2,4
21.01.2021 14:00:00 7,7 5,0 29 16 58 32 SSW 988,4 - 0,0
21.01.2021 13:00:00 8,8 7,7 37 20 54 29 SSW 989,6 10 0,0
21.01.2021 12:00:00 - - - - - - - - - -
21.01.2021 11:00:00 7,7 3,9 40 21 73 39 WSW 991,1 - 1,2
21.01.2021 10:00:00 8,4 3,6 44 24 64 35 SW 991,3 6 0,2
21.01.2021 09:00:00 9,3 4,3 42 23 71 38 WSW 991,4 - 0,0
21.01.2021 08:00:00 - - - - - - - - - -
21.01.2021 07:00:00 - - - - - - - - - -
21.01.2021 06:00:00 - - - - - - - - - -
21.01.2021 05:00:00 - - - - - - - - - -
21.01.2021 04:00:00 - - - - - - - - - -
21.01.2021 03:00:00 - - - - - - - - - -
21.01.2021 02:00:00 - - - - - - - - - -
21.01.2021 01:00:00 - - - - - - - - - -
21.01.2021 00:00:00 - - - - - - - - - -
20.01.2021 23:00:00 - - - - - - - - - -
20.01.2021 22:00:00 11,0 9,6 46 25 84 45 SSW 979,4 8 0,0
20.01.2021 21:00:00 9,9 8,0 46 25 74 40 S 979,7 - 0,6
20.01.2021 20:00:00 10,1 7,7 48 26 82 44 S 981,5 - 0,2
20.01.2021 19:00:00 10,4 7,6 51 28 87 47 S 983,0 8 0,0
20.01.2021 18:00:00 10,3 8,1 52 28 84 45 S 984,1 - 0,0
20.01.2021 17:00:00 10,3 8,4 54 29 78 42 S 985,2 - 0,0
20.01.2021 16:00:00 10,4 8,5 52 28 84 45 S 986,4 8 0,0
20.01.2021 15:00:00 10,2 8,3 51 28 77 42 S 987,0 - 0,0
20.01.2021 14:00:00 10,3 8,2 53 29 71 38 S 988,2 - 0,2
20.01.2021 13:00:00 10,4 8,3 41 22 72 39 S 989,6 10 0,0
20.01.2021 12:00:00 10,5 8,4 47 26 74 40 S 990,9 - 0,0
20.01.2021 11:00:00 10,4 8,2 49 27 78 42 S 991,8 - 0,0
20.01.2021 10:00:00 10,5 8,4 41 22 68 37 S 992,3 12 0,0
20.01.2021 09:00:00 10,6 9,0 52 28 72 39 SSW 993,2 - 0,0
20.01.2021 08:00:00 9,9 8,2 42 23 69 37 S 993,7 - 0,0
20.01.2021 07:00:00 10,0 7,8 41 22 67 36 S 994,6 10 0,2
20.01.2021 06:00:00 10,6 8,4 42 23 66 35 SSW 995,4 - 0,0
20.01.2021 05:00:00 10,5 8,3 44 24 76 41 SSW 996,2 - 0,0
20.01.2021 04:00:00 10,3 8,1 49 26 70 38 SSW 997,1 6 0,0
20.01.2021 03:00:00 10,3 8,2 46 25 71 39 SSW 997,7 - 0,0
20.01.2021 02:00:00 10,3 8,1 45 25 76 41 SSW 998,6 - 0,0
20.01.2021 01:00:00 10,3 8,2 50 27 78 42 SSW 999,6 10 0,0
20.01.2021 00:00:00 10,7 9,0 52 28 75 41 SSW 1000,3 - 0,0
19.01.2021 23:00:00 10,5 8,8 50 27 73 39 SSW 1000,9 - 0,0
19.01.2021 22:00:00 10,4 8,7 46 25 70 38 SSW 1001,6 10 0,0
19.01.2021 21:00:00 10,4 8,3 43 23 64 35 SSW 1002,3 - 0,4
19.01.2021 20:00:00 10,5 7,7 41 22 65 35 SSW 1003,3 - 0,0
19.01.2021 19:00:00 10,7 7,9 40 22 61 33 S 1003,8 - 0,0
19.01.2021 18:00:00 10,6 8,4 37 20 60 32 SSW 1004,8 - 0,0
19.01.2021 17:00:00 10,4 8,8 37 20 59 32 SSW 1005,6 - 0,0
19.01.2021 16:00:00 10,4 9,2 36 20 53 29 SSW 1006,3 10 0,0
19.01.2021 15:00:00 10,3 9,1 39 21 57 31 SSW 1007,2 - 0,0
19.01.2021 14:00:00 10,1 8,9 36 19 61 33 SSW 1008,7 - 0,2
19.01.2021 13:00:00 10,1 9,0 38 20 62 33 SW 1009,7 10 0,0
19.01.2021 12:00:00 10,2 9,6 41 22 63 34 SSW 1010,6 - 0,0
19.01.2021 11:00:00 10,3 9,8 39 21 59 32 SW 1011,1 - 0,0
19.01.2021 10:00:00 10,0 9,7 44 24 66 36 SW 1011,3 10 0,0
19.01.2021 09:00:00 10,3 10,0 42 23 63 34 SW 1011,6 - 0,0
19.01.2021 08:00:00 10,5 10,2 42 23 59 32 WSW 1012,0 - 0,6
19.01.2021 07:00:00 10,7 10,2 33 18 53 29 WSW 1012,2 6 0,8
19.01.2021 06:00:00 10,5 10,0 41 22 56 31 SW 1012,4 - 0,2
19.01.2021 05:00:00 10,5 9,9 45 24 73 39 SW 1012,7 - 0,0
19.01.2021 04:00:00 10,5 9,9 51 28 70 38 SW 1012,8 8 0,2
19.01.2021 03:00:00 10,2 9,4 50 27 71 39 SSW 1013,4 - 0,2
19.01.2021 02:00:00 9,6 8,8 49 26 72 39 SSW 1013,9 - 0,8
19.01.2021 01:00:00 9,5 8,4 46 25 68 37 SSW 1015,0 10 0,0
19.01.2021 00:00:00 9,6 8,5 47 26 72 39 SSW 1016,0 - 0,0
18.01.2021 23:00:00 9,6 8,7 39 21 62 34 SSW 1017,1 - 0,0
18.01.2021 22:00:00 9,5 8,6 44 24 63 34 SSW 1018,1 10 0,0
18.01.2021 21:00:00 8,9 7,8 37 20 59 32 SSW 1018,9 - 0,2
18.01.2021 20:00:00 8,6 6,9 36 20 57 31 S 1019,7 - 0,2
18.01.2021 19:00:00 8,8 6,2 34 19 51 27 SSW 1020,4 8 0,0
18.01.2021 18:00:00 9,5 6,2 29 15 44 24 SSW 1021,0 - 0,0
18.01.2021 17:00:00 9,1 5,3 30 16 44 24 SSW 1021,3 - 0,0
18.01.2021 16:00:00 9,5 5,7 32 17 48 26 SW 1022,1 12 0,0
18.01.2021 15:00:00 9,5 5,1 31 17 45 24 SW 1022,7 - 0,0
18.01.2021 14:00:00 9,4 4,8 34 19 47 26 SW 1023,7 - 0,0
18.01.2021 13:00:00 9,1 5,6 22 12 41 22 SW 1024,7 10 0,0
18.01.2021 12:00:00 8,9 5,1 29 16 41 22 SW 1025,5 - 0,0
18.01.2021 11:00:00 9,0 4,8 20 11 26 14 WSW 1025,7 - 0,0
18.01.2021 10:00:00 8,0 4,4 16 8 43 23 WSW 1026,0 10 0,6
18.01.2021 09:00:00 8,6 3,8 19 10 31 17 W 1025,8 - 0,0
18.01.2021 08:00:00 8,6 4,0 22 12 41 22 W 1025,6 - 0,0
18.01.2021 07:00:00 8,7 4,3 23 12 34 19 W 1025,6 12 0,0
18.01.2021 06:00:00 8,2 4,0 22 12 37 20 WSW 1026,0 - 0,4
18.01.2021 05:00:00 8,6 3,8 27 14 37 20 WNW 1026,5 - 0,0

tt = Température de l'air
td = dewpoint
ff = Vitesse du vent
fx = gusts
dd = Direction du vent
ppp = reduced air pressure
vv = visibility
rr = Quantités de précipitations

stations d'obs. à proximité